Total_Precipitation_Accumulation
2.35 2.54 2.40 2.26 2.25 2.26 2.48 2.71 2.67 2.32 2.03 1.87 1.75 1.62 1.65 1.61 1.64 1.54 1.47 1.40 1.23 1.12 1.07 1.01 0.99 1.01 1.10 1.24 1.42 1.60 1.74 1.86 1.98 2.08 2.24 2.43 2.65 2.89
2.30 2.42 2.38 2.32 2.50 2.47 2.54 2.70 2.83 2.69 2.18 1.97 1.90 1.62 1.72 1.43 1.52 1.49 1.44 1.40 1.23 1.10 1.03 0.98 0.96 0.96 0.97 1.01 1.11 1.23 1.39 1.52 1.64 1.75 1.78 1.80 1.84 1.97
1.92 2.01 2.01 2.24 2.41 2.35 2.43 2.52 2.65 2.76 2.37 2.15 2.24 2.03 2.00 1.80 1.63 1.48 1.29 1.30 1.19 1.13 1.05 0.98 0.94 0.93 0.96 0.94 0.93 0.99 1.11 1.21 1.29 1.41 1.57 1.68 1.73 1.76
1.87 1.94 1.86 2.03 2.14 2.17 2.32 2.42 2.58 2.85 2.66 2.43 2.41 2.37 2.26 2.07 1.89 1.67 1.31 1.13 1.16 1.23 1.08 0.97 0.93 0.92 0.97 0.97 0.93 0.91 0.93 0.97 1.01 1.08 1.24 1.38 1.51 1.64
1.70 1.65 1.64 1.82 1.85 1.98 2.13 2.13 2.26 2.60 2.65 2.39 2.29 2.51 2.39 2.19 2.22 1.91 1.67 1.60 1.21 1.20 1.12 0.97 0.92 0.90 0.92 0.98 0.99 0.93 0.89 0.90 0.93 1.01 1.14 1.28 1.38 1.46
1.46 1.35 1.39 1.54 1.60 1.73 1.78 1.91 2.05 2.19 2.37 2.34 2.24 2.39 2.44 2.33 2.50 2.28 2.07 1.92 1.59 1.29 1.29 1.09 1.01 0.97 0.95 0.95 0.97 0.99 1.02 1.01 1.01 1.07 1.10 1.15 1.26 1.35
1.30 1.16 1.09 1.13 1.21 1.34 1.32 1.52 1.77 1.91 1.99 2.13 2.17 2.27 2.49 2.58 2.45 2.43 2.28 2.08 1.93 1.78 1.76 1.37 1.09 0.97 0.96 0.97 0.99 1.04 1.08 1.09 1.11 1.18 1.28 1.33 1.36 1.40
1.32 1.29 1.13 1.02 1.01 1.06 1.09 1.15 1.29 1.43 1.63 1.88 1.97 2.07 2.30 2.57 2.60 2.63 2.53 2.31 2.10 1.94 2.07 2.03 1.69 1.42 1.22 1.01 1.01 1.04 1.12 1.21 1.24 1.30 1.39 1.52 1.65 1.64
1.29 1.27 1.07 0.95 1.02 0.99 1.04 1.05 1.09 1.12 1.20 1.43 1.56 1.62 1.87 2.18 2.52 2.57 2.64 2.48 2.25 2.22 2.35 2.42 2.48 2.24 1.68 1.33 1.26 1.11 1.14 1.24 1.30 1.36 1.43 1.46 1.62 1.77
1.23 1.26 1.26 1.20 1.12 1.14 1.16 1.10 1.01 1.02 1.04 1.00 1.06 1.26 1.43 1.68 2.06 2.25 2.55 2.74 2.60 2.51 2.58 2.65 2.66 2.87 2.37 1.83 1.65 1.40 1.33 1.35 1.41 1.43 1.46 1.53 1.59 1.67
1.28 1.28 1.27 1.20 1.21 1.16 1.16 1.16 1.04 0.97 0.96 0.95 0.93 1.03 1.22 1.36 1.65 1.99 2.28 2.48 2.57 2.65 2.71 2.77 2.69 2.82 3.10 2.65 1.96 1.61 1.38 1.32 1.36 1.41 1.45 1.57 1.64 1.63
1.38 1.36 1.24 1.11 1.17 1.12 1.02 1.08 1.06 1.06 1.10 1.06 1.04 1.07 1.13 1.28 1.53 1.79 2.04 2.30 2.35 2.42 2.29 2.27 2.28 2.42 2.85 3.05 2.68 2.07 1.62 1.45 1.34 1.32 1.35 1.47 1.61 1.48
1.37 1.36 1.30 1.18 1.00 0.96 0.93 0.95 1.01 1.10 1.20 1.21 1.22 1.25 1.32 1.36 1.40 1.58 1.86 2.10 2.17 1.98 1.76 1.88 2.04 2.16 2.24 2.42 2.59 2.54 2.17 1.83 1.62 1.46 1.40 1.40 1.45 1.42
1.60 1.56 1.50 1.34 1.12 0.99 0.90 0.94 1.02 1.01 1.07 1.17 1.15 1.13 1.20 1.25 1.30 1.46 1.65 1.80 1.89 1.89 1.84 1.95 2.08 2.11 2.19 2.21 2.25 2.32 2.35 2.19 2.00 1.86 1.78 1.77 1.60 1.52
1.77 1.77 1.66 1.43 1.21 1.03 0.95 0.95 0.96 0.93 0.99 1.06 1.01 0.97 1.02 1.10 1.18 1.34 1.51 1.67 1.73 1.68 1.69 1.82 1.93 1.95 2.06 2.12 2.07 1.99 2.05 2.13 2.12 2.10 2.12 2.09 1.97 1.81
1.74 1.67 1.60 1.49 1.30 1.18 1.11 1.03 0.95 1.00 1.03 1.03 1.04 1.03 1.08 1.18 1.28 1.33 1.45 1.59 1.76 1.72 1.67 1.72 1.78 1.89 1.86 1.74 1.67 1.55 1.54 1.66 1.82 1.97 2.16 2.35 2.39 2.31
1.87 1.73 1.64 1.52 1.42 1.35 1.28 1.19 1.11 1.10 1.07 1.06 1.09 1.08 1.08 1.13 1.20 1.24 1.34 1.41 1.48 1.50 1.53 1.59 1.72 1.85 1.85 1.77 1.65 1.47 1.42 1.36 1.41 1.70 2.02 2.26 2.28 2.16
1.52 1.51 1.52 1.49 1.41 1.35 1.30 1.22 1.17 1.12 1.11 1.11 1.11 1.09 1.05 1.06 1.14 1.25 1.36 1.35 1.31 1.31 1.37 1.42 1.63 1.84 1.88 1.71 1.42 1.32 1.31 1.27 1.27 1.47 1.65 1.74 1.75 1.65
1.24 1.32 1.29 1.29 1.28 1.27 1.25 1.18 1.14 1.12 1.16 1.17 1.12 1.11 1.10 1.11 1.14 1.23 1.33 1.37 1.30 1.28 1.37 1.51 1.64 1.76 1.74 1.54 1.34 1.11 1.12 1.16 1.28 1.44 1.53 1.51 1.41 1.29
1.15 1.21 1.22 1.23 1.25 1.27 1.27 1.22 1.21 1.21 1.24 1.25 1.23 1.21 1.22 1.23 1.24 1.26 1.33 1.38 1.34 1.31 1.39 1.50 1.54 1.57 1.57 1.47 1.38 1.24 1.04 1.10 1.16 1.26 1.36 1.39 1.30 1.16
1.26 1.30 1.29 1.28 1.30 1.34 1.34 1.30 1.30 1.26 1.23 1.26 1.26 1.25 1.23 1.24 1.29 1.30 1.36 1.42 1.39 1.35 1.32 1.31 1.39 1.49 1.62 1.79 1.68 1.45 1.27 1.14 1.15 1.17 1.26 1.38 1.39 1.33
1.21 1.27 1.28 1.27 1.30 1.34 1.31 1.28 1.29 1.26 1.23 1.22 1.21 1.22 1.23 1.21 1.23 1.29 1.32 1.35 1.32 1.28 1.24 1.26 1.41 1.59 1.67 1.71 1.63 1.50 1.44 1.37 1.31 1.25 1.20 1.14 1.16 1.18
1.20 1.23 1.20 1.18 1.20 1.21 1.16 1.15 1.20 1.24 1.25 1.24 1.21 1.18 1.17 1.15 1.13 1.20 1.26 1.30 1.32 1.34 1.36 1.41 1.45 1.53 1.57 1.59 1.63 1.59 1.49 1.45 1.46 1.44 1.35 1.16 0.89 0.79